Location: Hungerford
(51.4167°N, 1.5167°W)
Time: 22:23:43
(UTC+00:00)

ATLAS 2AS CENTAUR R/B - Pass Details

Date: 18 September 2020
Orbit: 939 x 1273 km, 63.7° (Epoch: 19 October)

Event Time Altitude Azimuth Distance (km) Brightness Sun altitude
Rises 22:52:35 0° 241° (WSW) 4,221 5.7 -35.3°
Enters shadow 22:52:41 - 241° (WSW) 4,188 5.7 -35.3°
Exits shadow 22:59:05 29° 256° (WSW) 2,141 4.2 -35.6°
Maximum altitude 23:03:19 60° 324° (NW) 1,431 3.4 -35.8°
Drops below altitude 10° 23:11:01 10° 44° (NE) 3,187 5.5 -36.2°
Sets 23:13:47 0° 48° (NE) 4,117 6.1 -36.3°
